User: anonymous   Login
Location: Unspecified
(0.0000°N, 0.0000°E)
Time: 06:13:29
(UTC+00:00)
Language:

GOES 8 - Orbit

View from above orbital plane
View from above orbital plane
View from above satellite
View from above satellite

Ground track
Ground track

The orbit data is extracted from the following two-line orbital elements,

1 23051U 94022A   18203.29861965 -.00000188 +00000-0 +00000-0 0  9996
2 23051 011.8526 035.2629 0005346 266.5137 288.2672 00.98907552095577
Epoch (UTC): 22 July 2018 07:10:00
Eccentricity: 0.0005346
inclination: 11.8526°
perigee height: 36150 km
apogee height: 36196 km
right ascension of ascending node: 35.2629°
argument of perigee: 266.5137°
revolutions per day: 0.98907552
mean anomaly at epoch: 288.2672°
orbit number at epoch: 9557

The dashed part of the orbit path shows where the satellite is in the earth's shadow,  

DLR